Regional Weather Roundup
Issued by NWS

Home | Current Version | Previous Version | Graphics & Text | Print | Product List | Glossary On
Versions: 1 2 3 4 5 6 7 8 9 10 11 12 13 14 15 16 17 18 19 20 21 22 23 24 25 26 27 28 29 30 31 32 33 34 35 36 37 38 39 40 41 42 43 44 45 46 47 48 49 50
000
ASUS43 KDTX 160701
RWRMI
MICHIGAN HOURLY REGIONAL WEATHER ROUNDUP
NATIONAL WEATHER SERVICE DETROIT/PONTIAC MI
300 AM EDT TUE SEP 16 2014

NOTE: "FAIR" INDICATES FEW OR NO CLOUDS BELOW 12,000 FEET WITH NO
SIGNIFICANT WEATHER AND/OR OBSTRUCTION TO VISIBILITY.

MIZ047>049-052>055-059>063-066>070-074>076-081>083-160800-
SOUTHEAST LOWER MICHIGAN

CITY           SKY/WX    TMP DP  RH WIND       PRES   REMARKS
ADRIAN         CLOUDY    52  51  97 NW7       30.13R
ALMA           PTCLDY    45  44  97 W5        30.14S
ANN ARBOR      CLOUDY    54  49  83 NW7       30.12R
BAD AXE        FOG       45  45 100 CALM      30.10S VSB 1/2
CARO           PTCLDY    45  45  99 CALM      30.11S
DETROIT CITY   MOCLDY    55  50  83 NW5       30.11S
DETROIT        CLOUDY    54  51  90 NW5       30.12R
FLINT          CLOUDY    52  49  89 W6        30.13S FOG
GROSSE ILE     MOCLDY    54  50  87 NW7       30.10R
HILLSDALE      CLOUDY    53  53 100 N3        30.13R
HOWELL         CLOUDY    52  51  97 NW3       30.12S FOG

CITY           SKY/WX    TMP DP  RH WIND       PRES   REMARKS
JACKSON        CLOUDY    52  50  93 CALM      30.13S
LAMBERTVILLE   CLOUDY    54  52  94 NW6       30.12S
LANSING        CLOUDY    52  50  93 NW5       30.14S
LAPEER         FAIR      49  48  96 NW3       30.12R
MASON          CLOUDY    51  50  96 CALM      30.13S
MONROE         MOCLDY    48  46  93 CALM      30.10R FOG
MT. CLEMENS    CLOUDY    52  50  91 NW5       30.09S
PONTIAC        CLOUDY    52  49  89 NW6       30.11S
PORT HOPE        N/A     51  48  89 CALM      30.08R
PORT HURON     MOCLDY    50  50 100 NW3       30.10R
TRI CITIES     MOCLDY    48  46  93 W3        30.14R FOG
TROY           MOCLDY    55  51  88 NW5       30.12S
SAGINAW HB     CLEAR     46  46 100 W6        30.12R FOG
$$
MIZ043>046-050>051-056>058-064>065-071>073-077>080-160800-
SOUTHWEST LOWER MICHIGAN

CITY           SKY/WX    TMP DP  RH WIND       PRES   REMARKS
BATTLE CREEK   CLOUDY    53  50  89 N5        30.15R
BENTON HARBOR  PTCLDY    49  47  93 CALM      30.16R
BIG RAPIDS     FOG       41  41 100 CALM      30.14R VSB 1/4
COLDWATER      CLOUDY    54  52  94 N3        30.14S
FREMONT        FOG       41  41  98 CALM      30.14S VSB<1/4
HOLLAND        FOG       45  43  93 CALM      30.16S VSB 1/2
GRAND RAPIDS   FOG       49  49 100 NW3       30.15S VSB 1/4
IONIA          FAIR      50  49  97 NW3       30.13F
KALAMAZOO      CLOUDY    52  49  89 N7        30.15S
LUDINGTON      FOG       39  38  97 CALM      30.14S VSB 1/2
MARSHALL       CLOUDY    51  50  95 CALM      30.13S
MOUNT PLEASANT FOG       44  43  97 CALM      30.13S VSB 1/2
MUSKEGON       FOG       42  40  92 CALM      30.16R VSB 1
SOUTH HAVEN    CLEAR     46  45  99 CALM      30.16S FOG
$$
MIZ016>042-160800-
NORTHERN LOWER MICHIGAN

CITY           SKY/WX    TMP DP  RH WIND       PRES   REMARKS
ALPENA         CLEAR     42  40  92 CALM      30.10S
BEAVER ISLAND  PTCLDY    52  44  72 W6        30.12S
BELLAIRE       CLOUDY    46  45  95 CALM      30.12S
CADILLAC       FOG       36  36 100 CALM      30.12S VSB 1/2
CHARLEVOIX     PTCLDY    55  43  64 N6        30.14S
FRANKFORT        N/A     44  41  90 CALM      30.12S
GAYLORD        PTCLDY    42  40  92 CALM      30.11S
GRAYLING       CLOUDY    42  42 100 CALM      30.12S
HARBOR SPRINGS CLOUDY    50  47  90 CALM      30.11S
HOUGHTON LAKE  FOG       39  39 100 CALM      30.12S VSB 1/2
MANISTEE       CLEAR     41  37  87 E5        30.13F
OSCODA         CLEAR     43  43 100 CALM      30.10R
PELLSTON       CLOUDY    47  45  93 W3        30.11S
ROGERS CITY    PTCLDY    46  45  98 W3        30.11S
TRAVERSE CITY  PTCLDY    50  47  89 CALM      30.11S
$$
MIZ007>008-015-160800-
EASTERN UPPER MICHIGAN

CITY           SKY/WX    TMP DP  RH WIND       PRES   REMARKS
KINROSS        CLEAR     43  41  93 W3        30.09F
MACKINAC ISLAN PTCLDY    49  45  86 W6        30.10S
NEWBERRY       CLEAR     42  41  98 SW7       30.10S
S. S. MARIE    PTCLDY    46  43  89 W3        30.08S
$$
MIZ004>006-011>014-085-160800-
CENTRAL UPPER MICHIGAN

CITY           SKY/WX    TMP DP  RH WIND       PRES   REMARKS
MANISTIQUE     CLEAR     41  41  99 CALM      30.11S
ESCANABA       CLEAR     43  39  87 W5        30.12F
MENOMINEE      CLEAR     43  39  87 W3        30.15R
SAWYER-GWINN   CLEAR     40  36  87 W5        30.11S
$$
MIZ001>003-009>011-084-160800-
WESTERN UPPER MICHIGAN

CITY           SKY/WX    TMP DP  RH WIND       PRES   REMARKS
IRON MOUNTAIN  CLEAR     36  34  92 CALM      30.13S
HOUGHTON       CLEAR     47  39  74 W12       30.08S
COPPER HARBOR    N/A     52  37  56 W8        30.06S
IRONWOOD       CLEAR     39  37  93 SW6       30.11F WCI  35
$$

ABBREVIATIONS USED IN REMARKS
   TC - TEMPERATURE IN CELSIUS
  WCI - WIND CHILL INDEX
   HX - HEAT INDEX
  VSB - VISIBILITY




USA.gov is the U.S. government's official web portal to all federal, state and local government web resources and services.